Location: Unspecified
(41.5000°N, 0.0000°E)
Time: 05:44:45
(UTC+00:00)

Vanguard 3 - Pass Details

Date: 26 June 2019
Orbit: 508 x 3263 km, 33.3° (Epoch: 21 August)

Event Time Altitude Azimuth Distance (km) Brightness Sun altitude
Rises 09:08:59 0° 226° (SW) 7,156 11.7 49.6°
Reaches altitude 10° 09:14:31 10° 221° (SW) 5,962 11.5 50.6°
Maximum altitude 09:30:05 40° 160° (SSE) 3,129 11.1 53.4°
Drops below altitude 10° 09:40:11 10° 96° (E) 3,934 11.4 55.2°
Sets 09:43:00 0° 88° (E) 4,593 11.5 55.7°
